METAR AND TAF INFORMATION
METAR FOR SKPS
ADDS - METARS form results

(2344 UTC 20 April 2018)
Data provider http://aviationweather.gov/adds/metars/
 
METAR text: SKPS 202300Z 10011KT 9999 SCT028 23/11 A3007
Conditions at: SKPS (PASTO/ANTONIO NA, CO) observed 2300 UTC 20 April 2018
Temperature: 23.0°C (73°F)
Dewpoint: 11.0°C (52°F) [RH = 47%]
Pressure (altimeter): 30.07 inches Hg (1018.4 mb)
Winds: from the E (100 degrees) at 13 MPH (11 knots; 5.7 m/s)
Visibility: 6 or more miles (10+ km)
Ceiling: at least 12,000 feet AGL
Clouds: scattered clouds at 2800 feet AGL
Weather: no significant weather observed at this time

 AIRPORT MAP

 RUNWAY INFORMATION
Runway 02 Runway length 7585 ft Runway width 130 ft
Runway elevation 5840 ft Runway displaced threshold 200 ft Runway heading 16
Runway 20 Runway length 7585 ft Runway width 130 ft
Runway elevation 5840 ft Runway displaced threshold 170 ft Runway heading 196

 AIRPORT FREQUENCIES
Type RDO Name PASTO RDO Frequency 348.8 MHZ
Type TWR Name TWR Frequency 118 MHZ

 AIRPORT NEAR NAVIGATION AIDS
Type VOR-DME Name Pasto Frequency 113400 KHZ
Type NDB Name Pasto Frequency 264 KHZ



v2.6.1